Location: Arrington
(35.8681°N, 86.7092°W)
Time: 18:49:17
(UTC+00:00)

Meteor 2-6 Rocket - Pass Details

Date: 23 November 2019
Orbit: 806 x 914 km, 81.3° (Epoch: 14 December)

Event Time Altitude Azimuth Distance (km) Brightness Sun altitude
Rises 01:00:35 0° 193° (SSW) 3,391 7.6 -29.1°
Reaches altitude 10° 01:03:02 10° 195° (SSW) 2,444 6.8 -29.6°
Enters shadow 01:07:52 63° 235° (SW) 920 4.4 -30.6°
